Meteo pe oră la Bolshoe Golanovo

Astăzi, 9 Mai, Duminică

Timp Temperatura Precipitaţii Vânt Presiune Umiditate
00:00 0°C° 0 mm 4 m/s 739 mmHg 83%
01:00 0°C° 0 mm 4 m/s 739 mmHg 87%
02:00 -1°C° 0 mm 4 m/s 740 mmHg 92%
03:00 0°C° 0 mm 4 m/s 740 mmHg 89%
04:00 0°C° 0 mm 4 m/s 741 mmHg 86%
05:00 0°C° 0 mm 4 m/s 741 mmHg 82%
06:00 +1°C° 0 mm 4 m/s 742 mmHg 75%
07:00 +4°C° 0 mm 4 m/s 742 mmHg 68%
08:00 +5°C° 0 mm 4 m/s 743 mmHg 60%
09:00 +6°C° 0 mm 5 m/s 743 mmHg 54%
10:00 +7°C° 0 mm 5 m/s 743 mmHg 47%
11:00 +9°C° 0 mm 5 m/s 744 mmHg 40%
12:00 +9°C° 0 mm 5 m/s 744 mmHg 38%
13:00 +10°C° 0 mm 5 m/s 744 mmHg 35%
14:00 +10°C° 0 mm 5 m/s 745 mmHg 33%
15:00 +11°C° 0 mm 4 m/s 745 mmHg 35%
16:00 +11°C° 0 mm 4 m/s 746 mmHg 37%
17:00 +11°C° 0 mm 4 m/s 746 mmHg 39%
18:00 +9°C° 0 mm 3 m/s 747 mmHg 46%
19:00 +7°C° 0 mm 2 m/s 747 mmHg 54%
20:00 +6°C° 0 mm 1 m/s 748 mmHg 61%
21:00 +5°C° 0 mm 1 m/s 748 mmHg 63%
22:00 +5°C° 0 mm 1 m/s 749 mmHg 64%
23:00 +3°C° 0 mm 0 m/s 749 mmHg 66%

Mâine, 10 Mai, Luni

Timp Temperatura Precipitaţii Vânt Presiune Umiditate
00:00 +3°C° 0 mm 0 m/s 749 mmHg 67%
01:00 +3°C° 0 mm 1 m/s 750 mmHg 68%
02:00 +3°C° 0 mm 1 m/s 750 mmHg 69%
03:00 +3°C° 0 mm 1 m/s 751 mmHg 70%
04:00 +4°C° 0 mm 1 m/s 751 mmHg 70%
05:00 +4°C° 0 mm 1 m/s 751 mmHg 71%
06:00 +5°C° 0 mm 2 m/s 751 mmHg 64%
07:00 +8°C° 0 mm 2 m/s 752 mmHg 56%
08:00 +10°C° 0 mm 2 m/s 752 mmHg 49%
09:00 +12°C° 0 mm 2 m/s 752 mmHg 45%
10:00 +14°C° 0 mm 2 m/s 752 mmHg 41%
11:00 +14°C° 0 mm 3 m/s 752 mmHg 36%
12:00 +15°C° 0 mm 2 m/s 751 mmHg 36%
13:00 +16°C° 0 mm 2 m/s 751 mmHg 36%
14:00 +17°C° 0 mm 2 m/s 751 mmHg 36%
15:00 +17°C° 0 mm 2 m/s 751 mmHg 38%
16:00 +17°C° 0 mm 2 m/s 751 mmHg 40%
17:00 +18°C° 0 mm 1 m/s 751 mmHg 42%
18:00 +14°C° 0 mm 1 m/s 751 mmHg 50%
19:00 +12°C° 0 mm 1 m/s 751 mmHg 59%
20:00 +10°C° 0 mm 1 m/s 752 mmHg 67%
21:00 +9°C° 0 mm 1 m/s 752 mmHg 70%
22:00 +9°C° 0 mm 1 m/s 752 mmHg 73%
23:00 +8°C° 0 mm 1 m/s 752 mmHg 76%

Poimâine, 11 Mai, Marţi

Timp Temperatura Precipitaţii Vânt Presiune Umiditate
00:00 +7°C° 0 mm 1 m/s 752 mmHg 76%
01:00 +7°C° 0 mm 1 m/s 753 mmHg 76%
02:00 +7°C° 0 mm 1 m/s 753 mmHg 76%
03:00 +7°C° 0 mm 1 m/s 753 mmHg 75%
04:00 +7°C° 0 mm 1 m/s 753 mmHg 73%
05:00 +7°C° 0 mm 1 m/s 753 mmHg 72%
06:00 +8°C° 0 mm 2 m/s 753 mmHg 64%
07:00 +10°C° 0 mm 2 m/s 753 mmHg 56%
08:00 +14°C° 0 mm 2 m/s 753 mmHg 48%
09:00 +15°C° 0 mm 2 m/s 753 mmHg 44%
10:00 +16°C° 0 mm 3 m/s 752 mmHg 39%
11:00 +18°C° 0 mm 3 m/s 752 mmHg 35%
12:00 +18°C° 0 mm 3 m/s 752 mmHg 34%
13:00 +19°C° 0 mm 3 m/s 752 mmHg 34%
14:00 +20°C° 0 mm 3 m/s 751 mmHg 33%
15:00 +19°C° 0 mm 3 m/s 751 mmHg 37%
16:00 +19°C° 0 mm 3 m/s 751 mmHg 41%
17:00 +18°C° 0 mm 3 m/s 751 mmHg 45%
18:00 +16°C° 0 mm 3 m/s 751 mmHg 54%
19:00 +14°C° 0 mm 2 m/s 751 mmHg 62%
20:00 +12°C° 0 mm 2 m/s 751 mmHg 71%
21:00 +10°C° 0 mm 2 m/s 751 mmHg 75%
22:00 +10°C° 0 mm 2 m/s 751 mmHg 78%
23:00 +9°C° 0 mm 2 m/s 751 mmHg 81%

12 Mai, Miercuri

Timp Temperatura Precipitaţii Vânt Presiune Umiditate
00:00 +9°C° 0 mm 2 m/s 751 mmHg 85%
01:00 +9°C° 0 mm 2 m/s 750 mmHg 89%
02:00 +8°C° 0 mm 2 m/s 750 mmHg 93%
03:00 +9°C° 0 mm 2 m/s 750 mmHg 93%
04:00 +9°C° 0 mm 2 m/s 750 mmHg 93%
05:00 +9°C° 0 mm 2 m/s 750 mmHg 93%
06:00 +13°C° 0 mm 2 m/s 750 mmHg 85%
07:00 +14°C° 0 mm 3 m/s 749 mmHg 78%
08:00 +17°C° 0 mm 3 m/s 749 mmHg 71%
09:00 +18°C° 0.1 mm 4 m/s 749 mmHg 66%
10:00 +19°C° 0.1 mm 5 m/s 748 mmHg 62%
11:00 +21°C° 0.1 mm 6 m/s 747 mmHg 57%
12:00 +19°C° 0.3 mm 5 m/s 747 mmHg 67%
13:00 +15°C° 0.3 mm 5 m/s 748 mmHg 76%
14:00 +13°C° 0.3 mm 4 m/s 748 mmHg 85%
15:00 +13°C° 0 mm 4 m/s 747 mmHg 81%
16:00 +13°C° 0 mm 3 m/s 747 mmHg 76%
17:00 +14°C° 0 mm 3 m/s 747 mmHg 72%
18:00 +13°C° 0 mm 3 m/s 747 mmHg 77%
19:00 +13°C° 0 mm 2 m/s 747 mmHg 82%
20:00 +12°C° 0 mm 2 m/s 746 mmHg 87%
21:00 +10°C° 0 mm 2 m/s 746 mmHg 90%
22:00 +10°C° 0 mm 2 m/s 746 mmHg 93%
23:00 +10°C° 0 mm 2 m/s 746 mmHg 96%

13 Mai, Joi

Timp Temperatura Precipitaţii Vânt Presiune Umiditate
00:00 +10°C° 0 mm 2 m/s 745 mmHg 95%
01:00 +10°C° 0 mm 3 m/s 745 mmHg 94%
02:00 +11°C° 0 mm 3 m/s 745 mmHg 92%
03:00 +11°C° 0 mm 3 m/s 744 mmHg 91%
04:00 +11°C° 0 mm 4 m/s 744 mmHg 90%
05:00 +11°C° 0 mm 4 m/s 744 mmHg 89%
06:00 +11°C° 0.1 mm 4 m/s 744 mmHg 88%
07:00 +10°C° 0.1 mm 5 m/s 744 mmHg 87%
08:00 +10°C° 0.1 mm 5 m/s 744 mmHg 86%
09:00 +13°C° 0.1 mm 5 m/s 744 mmHg 75%
10:00 +14°C° 0.1 mm 6 m/s 744 mmHg 64%
11:00 +16°C° 0.1 mm 6 m/s 744 mmHg 53%
12:00 +16°C° 0.1 mm 6 m/s 743 mmHg 54%
13:00 +16°C° 0.1 mm 5 m/s 743 mmHg 56%
14:00 +16°C° 0.1 mm 5 m/s 743 mmHg 57%
15:00 +17°C° 0.1 mm 4 m/s 743 mmHg 59%
16:00 +17°C° 0.1 mm 4 m/s 743 mmHg 61%
17:00 +17°C° 0.1 mm 3 m/s 743 mmHg 63%
18:00 +14°C° 0 mm 3 m/s 743 mmHg 71%
19:00 +14°C° 0 mm 2 m/s 743 mmHg 78%
20:00 +13°C° 0 mm 2 m/s 743 mmHg 86%
21:00 +13°C° 0 mm 2 m/s 743 mmHg 88%
22:00 +13°C° 0 mm 2 m/s 743 mmHg 91%
23:00 +12°C° 0 mm 2 m/s 743 mmHg 93%

14 Mai, Vineri

Timp Temperatura Precipitaţii Vânt Presiune Umiditate
00:00 +12°C° 0.1 mm 2 m/s 743 mmHg 93%
01:00 +12°C° 0.1 mm 2 m/s 742 mmHg 94%
02:00 +12°C° 0.1 mm 3 m/s 742 mmHg 94%
03:00 +12°C° 0 mm 3 m/s 742 mmHg 93%
04:00 +12°C° 0 mm 3 m/s 741 mmHg 91%
05:00 +12°C° 0 mm 4 m/s 741 mmHg 89%
06:00 +14°C° 0 mm 4 m/s 741 mmHg 84%
07:00 +15°C° 0 mm 4 m/s 740 mmHg 78%
08:00 +17°C° 0 mm 4 m/s 740 mmHg 73%
09:00 +17°C° 0 mm 5 m/s 740 mmHg 69%
10:00 +19°C° 0 mm 5 m/s 740 mmHg 66%
11:00 +20°C° 0 mm 5 m/s 739 mmHg 63%
12:00 +20°C° 0.6 mm 5 m/s 739 mmHg 68%
13:00 +20°C° 0.6 mm 5 m/s 739 mmHg 73%
14:00 +20°C° 0.6 mm 4 m/s 739 mmHg 78%
15:00 +19°C° 0.9 mm 4 m/s 739 mmHg 81%
16:00 +18°C° 0.9 mm 3 m/s 739 mmHg 85%
17:00 +17°C° 0.9 mm 2 m/s 739 mmHg 88%
18:00 +16°C° 0 mm 2 m/s 739 mmHg 90%
19:00 +15°C° 0 mm 2 m/s 739 mmHg 93%
20:00 +14°C° 0 mm 1 m/s 739 mmHg 95%
21:00 +13°C° 0 mm 1 m/s 739 mmHg 96%
22:00 +13°C° 0 mm 1 m/s 739 mmHg 96%
23:00 +13°C° 0 mm 1 m/s 739 mmHg 97%
Arată mai mult

Formular de consimțământ

Meteoprog și furnizorii noștri de servicii pot stoca și accesa date personale, precum cookies, identificatori de dispozitiv sau alte tehnologii similare pe dispozitivul dumneavoastră și procesa astfel de date pentru a personaliza conținutul și reclamele, dar și pentru a oferi caracteristici de social media și pentru a analiza traficul.

  • Stocarea și/sau accesarea informațiilor pe dispozitivul dumneavoastră

    Cookies, identificatori de dispozitiv sau alte informații pot fi stocate sau accesate pe dispozitiv în scopurile indicate mai sus.

  • Reclame și conținut personalizat, evaluarea reclamelor și a conținutului, informații despre audiențe și dezvoltarea produselor

    Reclamele și conținutul pot fi personalizate pe baza unui profil. Pot fi adăugate date suplimentare pentru a personaliza mai bine reclamele și conținutul. Performanța reclamelor și conținutului poate fi măsurată. Pot fi obținute informații despre utilizatorii care au văzut reclamele și conținutul. Aceste date pot fi utilizate pentru a dezvolta sau îmbunătăți experiența utilizatorilor, sistemele și software-ul.

Dând clic pe ‘Sunt de acord’, permiteți utilizarea cookie-urilor menționate, a identificatorilor de dispozitiv, balizelor web sau altor tehnologii similare. Setările pot fi modificate din browser-ul dispozitivului dumneavoastră.

În anumite scopuri, interesele legitime pot prima asupra consimțământului. Puteți citi mai multe informații în acest sens în Politica privind Confidențialitatea Datelor și Cookie.